Location: Eferding
(48.3167°N, 14.0167°E)
Time: 21:57:51
(UTC+00:00)

Cosmos 1666 Rocket - Pass Details

Date: 12 November 2019
Orbit: 603 x 634 km, 82.5° (Epoch: 07 December)

Event Time Altitude Azimuth Distance (km) Brightness Sun altitude
Rises 17:06:25 0° 354° (N) 2,911 7.0 -16.2°
Reaches altitude 10° 17:08:44 10° 360° (N) 1,995 6.1 -16.5°
Maximum altitude 17:13:02 51° 76° (ENE) 780 3.6 -17.2°
Drops below altitude 10° 17:17:16 10° 153° (SSE) 1,961 5.9 -17.9°
Sets 17:19:31 0° 159° (SSE) 2,856 6.8 -18.3°
